Year,Month,Day,Hour,Minute,Value (Times are PST for temperature in C)
2014,06,24,00,00,15.80
2014,06,24,00,01,15.80
2014,06,24,00,02,15.80
2014,06,24,00,03,15.80
2014,06,24,00,04,15.80
2014,06,24,00,05,15.80
2014,06,24,00,06,15.80
2014,06,24,00,07,15.80
2014,06,24,00,08,15.80
2014,06,24,00,09,15.80
2014,06,24,00,10,15.80
2014,06,24,00,11,15.80
2014,06,24,00,12,15.80
2014,06,24,00,13,15.80
2014,06,24,00,14,15.80
2014,06,24,00,15,15.80
2014,06,24,00,16,15.80
2014,06,24,00,17,15.80
2014,06,24,00,18,15.80
2014,06,24,00,19,15.80
2014,06,24,00,20,15.80
2014,06,24,00,21,15.80
2014,06,24,00,22,15.80
2014,06,24,00,23,15.70
2014,06,24,00,24,15.70
2014,06,24,00,25,15.70
2014,06,24,00,26,15.70
2014,06,24,00,27,15.70
2014,06,24,00,28,15.70
2014,06,24,00,29,15.70
2014,06,24,00,30,15.70
2014,06,24,00,31,15.70
2014,06,24,00,32,15.70
2014,06,24,00,33,15.70
2014,06,24,00,34,15.70
2014,06,24,00,35,15.70
2014,06,24,00,36,15.70
2014,06,24,00,37,15.70
2014,06,24,00,38,15.70
2014,06,24,00,39,15.70
2014,06,24,00,40,15.70
2014,06,24,00,41,15.70
2014,06,24,00,42,15.70
2014,06,24,00,43,15.70
2014,06,24,00,44,15.70
2014,06,24,00,45,15.70
2014,06,24,00,46,15.70
2014,06,24,00,47,15.70
2014,06,24,00,48,15.70
2014,06,24,00,49,15.70
2014,06,24,00,50,15.70
2014,06,24,00,51,15.70
2014,06,24,00,52,15.70
2014,06,24,00,53,15.70
2014,06,24,00,54,15.70
2014,06,24,00,55,15.60
2014,06,24,00,56,15.60
2014,06,24,00,57,15.60
2014,06,24,00,58,15.60
2014,06,24,00,59,15.60
2014,06,24,01,00,15.60
2014,06,24,01,01,15.60
2014,06,24,01,02,15.60
2014,06,24,01,03,15.60
2014,06,24,01,04,15.60
2014,06,24,01,05,15.60
2014,06,24,01,06,15.60
2014,06,24,01,07,15.60
2014,06,24,01,08,15.60
2014,06,24,01,09,15.60
2014,06,24,01,10,15.60
2014,06,24,01,11,15.60
2014,06,24,01,12,15.60
2014,06,24,01,13,15.60
2014,06,24,01,14,15.60
2014,06,24,01,15,15.60
2014,06,24,01,16,15.60
2014,06,24,01,17,15.60
2014,06,24,01,18,15.60
2014,06,24,01,19,15.60
2014,06,24,01,20,15.60
2014,06,24,01,21,15.60
2014,06,24,01,22,15.60
2014,06,24,01,23,15.60
2014,06,24,01,24,15.60
2014,06,24,01,25,15.60
2014,06,24,01,26,15.60
2014,06,24,01,27,15.60
2014,06,24,01,28,15.60
2014,06,24,01,29,15.60
2014,06,24,01,30,15.60
2014,06,24,01,31,15.60
2014,06,24,01,32,15.60
2014,06,24,01,33,15.60
2014,06,24,01,34,15.60
2014,06,24,01,35,15.60
2014,06,24,01,36,15.60
2014,06,24,01,37,15.60
2014,06,24,01,38,15.60
2014,06,24,01,39,15.60
2014,06,24,01,40,15.60
2014,06,24,01,41,15.60
2014,06,24,01,42,15.60
2014,06,24,01,43,15.60
2014,06,24,01,44,15.60
2014,06,24,01,45,15.60
2014,06,24,01,46,15.60
2014,06,24,01,47,15.60
2014,06,24,01,48,15.50
2014,06,24,01,49,15.50
2014,06,24,01,50,15.50
2014,06,24,01,51,15.60
2014,06,24,01,52,15.50
2014,06,24,01,53,15.60
2014,06,24,01,54,15.50
2014,06,24,01,55,15.50
2014,06,24,01,56,15.50
2014,06,24,01,57,15.50
2014,06,24,01,58,15.50
2014,06,24,01,59,15.50
2014,06,24,02,00,15.50
2014,06,24,02,01,15.50
2014,06,24,02,02,15.50
2014,06,24,02,03,15.50
2014,06,24,02,04,15.50
2014,06,24,02,05,15.50
2014,06,24,02,06,15.50
2014,06,24,02,07,15.50
2014,06,24,02,08,15.50
2014,06,24,02,09,15.50
2014,06,24,02,10,15.50
2014,06,24,02,11,15.40
2014,06,24,02,12,15.40
2014,06,24,02,13,15.40
2014,06,24,02,14,15.40
2014,06,24,02,15,15.40
2014,06,24,02,16,15.40
2014,06,24,02,17,15.40
2014,06,24,02,18,15.40
2014,06,24,02,19,15.40
2014,06,24,02,20,15.40
2014,06,24,02,21,15.40
2014,06,24,02,22,15.40
2014,06,24,02,23,15.40
2014,06,24,02,24,15.40
2014,06,24,02,25,15.40
2014,06,24,02,26,15.40
2014,06,24,02,27,15.40
2014,06,24,02,28,15.30
2014,06,24,02,29,15.30
2014,06,24,02,30,15.30
2014,06,24,02,31,15.30
2014,06,24,02,32,15.30
2014,06,24,02,33,15.30
2014,06,24,02,34,15.30
2014,06,24,02,35,15.30
2014,06,24,02,36,15.30
2014,06,24,02,37,15.30
2014,06,24,02,38,15.30
2014,06,24,02,39,15.30
2014,06,24,02,40,15.30
2014,06,24,02,41,15.30
2014,06,24,02,42,15.30
2014,06,24,02,43,15.20
2014,06,24,02,44,15.20
2014,06,24,02,45,15.30
2014,06,24,02,46,15.30
2014,06,24,02,47,15.20
2014,06,24,02,48,15.20
2014,06,24,02,49,15.20
2014,06,24,02,50,15.20
2014,06,24,02,51,15.20
2014,06,24,02,52,15.20
2014,06,24,02,53,15.20
2014,06,24,02,54,15.20
2014,06,24,02,55,15.20
2014,06,24,02,56,15.20
2014,06,24,02,57,15.20
2014,06,24,02,58,15.20
2014,06,24,02,59,15.20
2014,06,24,03,00,15.20
2014,06,24,03,01,15.20
2014,06,24,03,02,15.20
2014,06,24,03,03,15.20
2014,06,24,03,04,15.20
2014,06,24,03,05,15.20
2014,06,24,03,06,15.20
2014,06,24,03,07,15.20
2014,06,24,03,08,15.20
2014,06,24,03,09,15.20
2014,06,24,03,10,15.20
2014,06,24,03,11,15.20
2014,06,24,03,12,15.20
2014,06,24,03,13,15.20
2014,06,24,03,14,15.20
2014,06,24,03,15,15.20
2014,06,24,03,16,15.10
2014,06,24,03,17,15.10
2014,06,24,03,18,15.10
2014,06,24,03,19,15.10
2014,06,24,03,20,15.10
2014,06,24,03,21,15.10
2014,06,24,03,22,15.10
2014,06,24,03,23,15.10
2014,06,24,03,24,15.10
2014,06,24,03,25,15.10
2014,06,24,03,26,15.10
2014,06,24,03,27,15.00
2014,06,24,03,28,15.00
2014,06,24,03,29,15.00
2014,06,24,03,30,15.00
2014,06,24,03,31,15.00
2014,06,24,03,32,15.00
2014,06,24,03,33,15.00
2014,06,24,03,34,15.00
2014,06,24,03,35,15.00
2014,06,24,03,36,14.90
2014,06,24,03,37,14.90
2014,06,24,03,38,14.90
2014,06,24,03,39,14.90
2014,06,24,03,40,14.90
2014,06,24,03,41,14.90
2014,06,24,03,42,14.90
2014,06,24,03,43,14.90
2014,06,24,03,44,14.90
2014,06,24,03,45,14.90
2014,06,24,03,46,14.90
2014,06,24,03,47,14.90
2014,06,24,03,48,14.90
2014,06,24,03,49,14.90
2014,06,24,03,50,14.90
2014,06,24,03,51,14.90
2014,06,24,03,52,14.90
2014,06,24,03,53,15.00
2014,06,24,03,54,14.90
2014,06,24,03,55,14.90
2014,06,24,03,56,15.00
2014,06,24,03,57,15.00
2014,06,24,03,58,14.90
2014,06,24,03,59,14.90
2014,06,24,04,00,14.90
2014,06,24,04,01,14.90
2014,06,24,04,02,14.90
2014,06,24,04,03,14.90
2014,06,24,04,04,14.90
2014,06,24,04,05,14.90
2014,06,24,04,06,14.90
2014,06,24,04,07,14.90
2014,06,24,04,08,14.90
2014,06,24,04,09,14.90
2014,06,24,04,10,14.90
2014,06,24,04,11,14.90
2014,06,24,04,12,14.90
2014,06,24,04,13,14.90
2014,06,24,04,14,14.90
2014,06,24,04,15,14.90
2014,06,24,04,16,14.90
2014,06,24,04,17,14.90
2014,06,24,04,18,14.90
2014,06,24,04,19,14.90
2014,06,24,04,20,14.90
2014,06,24,04,21,14.90
2014,06,24,04,22,14.90
2014,06,24,04,23,14.90
2014,06,24,04,24,14.90
2014,06,24,04,25,14.90
2014,06,24,04,26,14.90
2014,06,24,04,27,14.80
2014,06,24,04,28,14.80
2014,06,24,04,29,14.80
2014,06,24,04,30,14.80
2014,06,24,04,31,14.80
2014,06,24,04,32,14.80
2014,06,24,04,33,14.80
2014,06,24,04,34,14.80
2014,06,24,04,35,14.80
2014,06,24,04,36,14.80
2014,06,24,04,37,14.80
2014,06,24,04,38,14.80
2014,06,24,04,39,14.70
2014,06,24,04,40,14.70
2014,06,24,04,41,14.70
2014,06,24,04,42,14.70
2014,06,24,04,43,14.70
2014,06,24,04,44,14.70
2014,06,24,04,45,14.60
2014,06,24,04,46,14.60
2014,06,24,04,47,14.60
2014,06,24,04,48,14.60
2014,06,24,04,49,14.50
2014,06,24,04,50,14.50
2014,06,24,04,51,14.50
2014,06,24,04,52,14.40
2014,06,24,04,53,14.40
2014,06,24,04,54,14.40
2014,06,24,04,55,14.40
2014,06,24,04,56,14.30
2014,06,24,04,57,14.30
2014,06,24,04,58,14.30
2014,06,24,04,59,14.30
2014,06,24,05,00,14.20
2014,06,24,05,01,14.20
2014,06,24,05,02,14.20
2014,06,24,05,03,14.20
2014,06,24,05,04,14.20
2014,06,24,05,05,14.20
2014,06,24,05,06,14.10
2014,06,24,05,07,14.10
2014,06,24,05,08,14.10
2014,06,24,05,09,14.10
2014,06,24,05,10,14.10
2014,06,24,05,11,14.10
2014,06,24,05,12,14.10
2014,06,24,05,13,14.10
2014,06,24,05,14,14.10
2014,06,24,05,15,14.10
2014,06,24,05,16,14.10
2014,06,24,05,17,14.10
2014,06,24,05,18,14.10
2014,06,24,05,19,14.10
2014,06,24,05,20,14.10
2014,06,24,05,21,14.00
2014,06,24,05,22,14.00
2014,06,24,05,23,14.00
2014,06,24,05,24,14.00
2014,06,24,05,25,14.00
2014,06,24,05,26,14.00
2014,06,24,05,27,14.00
2014,06,24,05,28,14.00
2014,06,24,05,29,14.00
2014,06,24,05,30,14.00
2014,06,24,05,31,14.00
2014,06,24,05,32,14.00
2014,06,24,05,33,14.00
2014,06,24,05,34,13.90
2014,06,24,05,35,13.90
2014,06,24,05,36,13.90
2014,06,24,05,37,13.90
2014,06,24,05,38,13.90
2014,06,24,05,39,13.90
2014,06,24,05,40,13.90
2014,06,24,05,41,13.90
2014,06,24,05,42,13.90
2014,06,24,05,43,13.90
2014,06,24,05,44,13.90
2014,06,24,05,45,13.90
2014,06,24,05,46,13.90
2014,06,24,05,47,13.90
2014,06,24,05,48,13.90
2014,06,24,05,49,13.80
2014,06,24,05,50,13.80
2014,06,24,05,51,13.80
2014,06,24,05,52,13.80
2014,06,24,05,53,13.80
2014,06,24,05,54,13.80
2014,06,24,05,55,13.80
2014,06,24,05,56,13.80
2014,06,24,05,57,13.80
2014,06,24,05,58,13.80
2014,06,24,05,59,13.80
2014,06,24,06,00,13.80
2014,06,24,06,01,13.80
2014,06,24,06,02,13.80
2014,06,24,06,03,13.80
2014,06,24,06,04,13.80
2014,06,24,06,05,13.80
2014,06,24,06,06,13.80
2014,06,24,06,07,13.90
2014,06,24,06,08,13.90
2014,06,24,06,09,13.90
2014,06,24,06,10,14.00
2014,06,24,06,11,14.00
2014,06,24,06,12,14.00
2014,06,24,06,13,14.00
2014,06,24,06,14,14.10
2014,06,24,06,15,14.10
2014,06,24,06,16,14.10
2014,06,24,06,17,14.10
2014,06,24,06,18,14.20
2014,06,24,06,19,14.20
2014,06,24,06,20,14.20
2014,06,24,06,21,14.20
2014,06,24,06,22,14.30
2014,06,24,06,23,14.30
2014,06,24,06,24,14.30
2014,06,24,06,25,14.30
2014,06,24,06,26,14.40
2014,06,24,06,27,14.40
2014,06,24,06,28,14.40
2014,06,24,06,29,14.40
2014,06,24,06,30,14.40
2014,06,24,06,31,14.50
2014,06,24,06,32,14.50
2014,06,24,06,33,14.50
2014,06,24,06,34,14.50
2014,06,24,06,35,14.50
2014,06,24,06,36,14.60
2014,06,24,06,37,14.60
2014,06,24,06,38,14.60
2014,06,24,06,39,14.60
2014,06,24,06,40,14.60
2014,06,24,06,41,14.60
2014,06,24,06,42,14.60
2014,06,24,06,43,14.60
2014,06,24,06,44,14.60
2014,06,24,06,45,14.60
2014,06,24,06,46,14.60
2014,06,24,06,47,14.70
2014,06,24,06,48,14.70
2014,06,24,06,49,14.70
2014,06,24,06,50,14.70
2014,06,24,06,51,14.70
2014,06,24,06,52,14.70
2014,06,24,06,53,14.70
2014,06,24,06,54,14.70
2014,06,24,06,55,14.70
2014,06,24,06,56,14.70
2014,06,24,06,57,14.70
2014,06,24,06,58,14.70
2014,06,24,06,59,14.70
2014,06,24,07,00,14.70
2014,06,24,07,01,14.70
2014,06,24,07,02,14.70
2014,06,24,07,03,14.70
2014,06,24,07,04,14.70
2014,06,24,07,05,14.80
2014,06,24,07,06,14.80
2014,06,24,07,07,14.80
2014,06,24,07,08,14.80
2014,06,24,07,09,14.80
2014,06,24,07,10,14.90
2014,06,24,07,11,14.90
2014,06,24,07,12,14.90
2014,06,24,07,13,14.90
2014,06,24,07,14,14.90
2014,06,24,07,15,15.00
2014,06,24,07,16,15.00
2014,06,24,07,17,15.00
2014,06,24,07,18,15.00
2014,06,24,07,19,15.10
2014,06,24,07,20,15.10
2014,06,24,07,21,15.10
2014,06,24,07,22,15.10
2014,06,24,07,23,15.10
2014,06,24,07,24,15.10
2014,06,24,07,25,15.20
2014,06,24,07,26,15.20
2014,06,24,07,27,15.20
2014,06,24,07,28,15.20
2014,06,24,07,29,15.20
2014,06,24,07,30,15.30
2014,06,24,07,31,15.30
2014,06,24,07,32,15.30
2014,06,24,07,33,15.30
2014,06,24,07,34,15.30
2014,06,24,07,35,15.30
2014,06,24,07,36,15.30
2014,06,24,07,37,15.30
2014,06,24,07,38,15.30
2014,06,24,07,39,15.30
2014,06,24,07,40,15.30
2014,06,24,07,41,15.40
2014,06,24,07,42,15.40
2014,06,24,07,43,15.40
2014,06,24,07,44,15.40
2014,06,24,07,45,15.40
2014,06,24,07,46,15.40
2014,06,24,07,47,15.50
2014,06,24,07,48,15.50
2014,06,24,07,49,15.50
2014,06,24,07,50,15.50
2014,06,24,07,51,15.60
2014,06,24,07,52,15.60
2014,06,24,07,53,15.60
2014,06,24,07,54,15.60
2014,06,24,07,55,15.60
2014,06,24,07,56,15.70
2014,06,24,07,57,15.70
2014,06,24,07,58,15.70
2014,06,24,07,59,15.70
2014,06,24,08,00,15.70
2014,06,24,08,01,15.70
2014,06,24,08,02,15.80
2014,06,24,08,03,15.80
2014,06,24,08,04,15.80
2014,06,24,08,05,15.80
2014,06,24,08,06,15.80
2014,06,24,08,07,15.80
2014,06,24,08,08,15.90
2014,06,24,08,09,15.90
2014,06,24,08,10,15.90
2014,06,24,08,11,16.00
2014,06,24,08,12,16.00
2014,06,24,08,13,16.00
2014,06,24,08,14,16.10
2014,06,24,08,15,16.10
2014,06,24,08,16,16.10
2014,06,24,08,17,16.20
2014,06,24,08,18,16.20
2014,06,24,08,19,16.20
2014,06,24,08,20,16.20
2014,06,24,08,21,16.30
2014,06,24,08,22,16.30
2014,06,24,08,23,16.40
2014,06,24,08,24,16.40
2014,06,24,08,25,16.50
2014,06,24,08,26,16.50
2014,06,24,08,27,16.50
2014,06,24,08,28,16.60
2014,06,24,08,29,16.60
2014,06,24,08,30,16.60
2014,06,24,08,31,16.70
2014,06,24,08,32,16.70
2014,06,24,08,33,16.70
2014,06,24,08,34,16.70
2014,06,24,08,35,16.80
2014,06,24,08,36,16.80
2014,06,24,08,37,16.80
2014,06,24,08,38,16.90
2014,06,24,08,39,16.90
2014,06,24,08,40,17.00
2014,06,24,08,41,17.10
2014,06,24,08,42,17.10
2014,06,24,08,43,17.10
2014,06,24,08,44,17.20
2014,06,24,08,45,17.20
2014,06,24,08,46,17.20
2014,06,24,08,47,17.30
2014,06,24,08,48,17.30
2014,06,24,08,49,17.30
2014,06,24,08,50,17.30
2014,06,24,08,51,17.30
2014,06,24,08,52,17.30
2014,06,24,08,53,17.30
2014,06,24,08,54,17.30
2014,06,24,08,55,17.30
2014,06,24,08,56,17.30
2014,06,24,08,57,17.30
2014,06,24,08,58,17.30
2014,06,24,08,59,17.30
2014,06,24,09,00,17.40
2014,06,24,09,01,17.40
2014,06,24,09,02,17.40
2014,06,24,09,03,17.40
2014,06,24,09,04,17.30
2014,06,24,09,05,17.30
2014,06,24,09,06,17.40
2014,06,24,09,07,17.40
2014,06,24,09,08,17.50
2014,06,24,09,09,17.50
2014,06,24,09,10,17.50
2014,06,24,09,11,17.50
2014,06,24,09,12,17.50
2014,06,24,09,13,17.50
2014,06,24,09,14,17.50
2014,06,24,09,15,17.60
2014,06,24,09,16,17.60
2014,06,24,09,17,17.60
2014,06,24,09,18,17.70
2014,06,24,09,19,17.70
2014,06,24,09,20,17.70
2014,06,24,09,21,17.70
2014,06,24,09,22,17.70
2014,06,24,09,23,17.60
2014,06,24,09,24,17.60
2014,06,24,09,25,17.50
2014,06,24,09,26,17.40
2014,06,24,09,27,17.30
2014,06,24,09,28,17.30
2014,06,24,09,29,17.20
2014,06,24,09,30,17.20
2014,06,24,09,31,17.20
2014,06,24,09,32,17.30
2014,06,24,09,33,17.30
2014,06,24,09,34,17.30
2014,06,24,09,35,17.40
2014,06,24,09,36,17.40
2014,06,24,09,37,17.40
2014,06,24,09,38,17.40
2014,06,24,09,39,17.40
2014,06,24,09,40,17.40
2014,06,24,09,41,17.50
2014,06,24,09,42,17.50
2014,06,24,09,43,17.50
2014,06,24,09,44,17.60
2014,06,24,09,45,17.60
2014,06,24,09,46,17.60
2014,06,24,09,47,17.60
2014,06,24,09,48,17.70
2014,06,24,09,49,17.70
2014,06,24,09,50,17.70
2014,06,24,09,51,17.70
2014,06,24,09,52,17.80
2014,06,24,09,53,17.80
2014,06,24,09,54,17.80
2014,06,24,09,55,17.90
2014,06,24,09,56,17.90
2014,06,24,09,57,17.90
2014,06,24,09,58,18.00
2014,06,24,09,59,18.00
2014,06,24,10,00,18.10
2014,06,24,10,01,18.10
2014,06,24,10,02,18.10
2014,06,24,10,03,18.10
2014,06,24,10,04,18.20
2014,06,24,10,05,18.20
2014,06,24,10,06,18.20
2014,06,24,10,07,18.20
2014,06,24,10,08,18.20
2014,06,24,10,09,18.20
2014,06,24,10,10,18.10
2014,06,24,10,11,18.10
2014,06,24,10,12,18.10
2014,06,24,10,13,18.10
2014,06,24,10,14,18.10
2014,06,24,10,15,18.10
2014,06,24,10,16,18.20
2014,06,24,10,17,18.20
2014,06,24,10,18,18.20
2014,06,24,10,19,18.30
2014,06,24,10,20,18.30
2014,06,24,10,21,18.30
2014,06,24,10,22,18.30
2014,06,24,10,23,18.40
2014,06,24,10,24,18.50
2014,06,24,10,25,18.50
2014,06,24,10,26,18.50
2014,06,24,10,27,18.50
2014,06,24,10,28,18.40
2014,06,24,10,29,18.40
2014,06,24,10,30,18.40
2014,06,24,10,31,18.40
2014,06,24,10,32,18.30
2014,06,24,10,33,18.30
2014,06,24,10,34,18.20
2014,06,24,10,35,18.30
2014,06,24,10,36,18.30
2014,06,24,10,37,18.30
2014,06,24,10,38,18.40
2014,06,24,10,39,18.50
2014,06,24,10,40,18.50
2014,06,24,10,41,18.50
2014,06,24,10,42,18.50
2014,06,24,10,43,18.60
2014,06,24,10,44,18.60
2014,06,24,10,45,18.50
2014,06,24,10,46,18.50
2014,06,24,10,47,18.50
2014,06,24,10,48,18.50
2014,06,24,10,49,18.40
2014,06,24,10,50,18.40
2014,06,24,10,51,18.40
2014,06,24,10,52,18.40
2014,06,24,10,53,18.40
2014,06,24,10,54,18.50
2014,06,24,10,55,18.50
2014,06,24,10,56,18.60
2014,06,24,10,57,18.60
2014,06,24,10,58,18.60
2014,06,24,10,59,18.60
2014,06,24,11,00,18.50
2014,06,24,11,01,18.50
2014,06,24,11,02,18.50
2014,06,24,11,03,18.50
2014,06,24,11,04,18.50
2014,06,24,11,05,18.60
2014,06,24,11,06,18.60
2014,06,24,11,07,18.50
2014,06,24,11,08,18.50
2014,06,24,11,09,18.50
2014,06,24,11,10,18.50
2014,06,24,11,11,18.40
2014,06,24,11,12,18.40
2014,06,24,11,13,18.40
2014,06,24,11,14,18.40
2014,06,24,11,15,18.40
2014,06,24,11,16,18.40
2014,06,24,11,17,18.50
2014,06,24,11,18,18.60
2014,06,24,11,19,18.70
2014,06,24,11,20,18.70
2014,06,24,11,21,18.60
2014,06,24,11,22,18.60
2014,06,24,11,23,18.60
2014,06,24,11,24,18.60
2014,06,24,11,25,18.60
2014,06,24,11,26,18.50
2014,06,24,11,27,18.50
2014,06,24,11,28,18.50
2014,06,24,11,29,18.50
2014,06,24,11,30,18.50
2014,06,24,11,31,18.50
2014,06,24,11,32,18.50
2014,06,24,11,33,18.50
2014,06,24,11,34,18.50
2014,06,24,11,35,18.40
2014,06,24,11,36,18.40
2014,06,24,11,37,18.50
2014,06,24,11,38,18.50
2014,06,24,11,39,18.60
2014,06,24,11,40,18.50
2014,06,24,11,41,18.50
2014,06,24,11,42,18.60
2014,06,24,11,43,18.70
2014,06,24,11,44,18.70
2014,06,24,11,45,18.80
2014,06,24,11,46,18.80
2014,06,24,11,47,18.80
2014,06,24,11,48,18.90
2014,06,24,11,49,18.90
2014,06,24,11,50,19.00
2014,06,24,11,51,19.10
2014,06,24,11,52,19.20
2014,06,24,11,53,19.20
2014,06,24,11,54,19.20
2014,06,24,11,55,19.20
2014,06,24,11,56,19.20
2014,06,24,11,57,19.20
2014,06,24,11,58,19.30
2014,06,24,11,59,19.30
2014,06,24,12,00,19.30
2014,06,24,12,01,19.40
2014,06,24,12,02,19.40
2014,06,24,12,03,19.40
2014,06,24,12,04,19.40
2014,06,24,12,05,19.40
2014,06,24,12,06,19.40
2014,06,24,12,07,19.30
2014,06,24,12,08,19.30
2014,06,24,12,09,19.30
2014,06,24,12,10,19.30
2014,06,24,12,11,19.30
2014,06,24,12,12,19.40
2014,06,24,12,13,19.40
2014,06,24,12,14,19.40
2014,06,24,12,15,19.30
2014,06,24,12,16,19.30
2014,06,24,12,17,19.20
2014,06,24,12,18,19.20
2014,06,24,12,19,19.20
2014,06,24,12,20,19.30
2014,06,24,12,21,19.30
2014,06,24,12,22,19.30
2014,06,24,12,23,19.30
2014,06,24,12,24,19.30
2014,06,24,12,25,19.40
2014,06,24,12,26,19.40
2014,06,24,12,27,19.50
2014,06,24,12,28,19.50
2014,06,24,12,29,19.50
2014,06,24,12,30,19.50
2014,06,24,12,31,19.40
2014,06,24,12,32,19.40
2014,06,24,12,33,19.40
2014,06,24,12,34,19.40
2014,06,24,12,35,19.40
2014,06,24,12,36,19.30
2014,06,24,12,37,19.30
2014,06,24,12,38,19.30
2014,06,24,12,39,19.30
2014,06,24,12,40,19.30
2014,06,24,12,41,19.20
2014,06,24,12,42,19.20
2014,06,24,12,43,19.20
2014,06,24,12,44,19.10
2014,06,24,12,45,19.00
2014,06,24,12,46,18.90
2014,06,24,12,47,18.90
2014,06,24,12,48,18.80
2014,06,24,12,49,18.70
2014,06,24,12,50,18.70
2014,06,24,12,51,18.70
2014,06,24,12,52,18.70
2014,06,24,12,53,18.70
2014,06,24,12,54,18.70
2014,06,24,12,55,18.70
2014,06,24,12,56,18.70
2014,06,24,12,57,18.70
2014,06,24,12,58,18.70
2014,06,24,12,59,18.60
2014,06,24,13,00,18.50
2014,06,24,13,01,18.30
2014,06,24,13,02,18.20
2014,06,24,13,03,18.10
2014,06,24,13,04,18.10
2014,06,24,13,05,18.00
2014,06,24,13,06,17.90
2014,06,24,13,07,17.90
2014,06,24,13,08,17.80
2014,06,24,13,09,17.80
2014,06,24,13,10,17.80
2014,06,24,13,11,17.80
2014,06,24,13,12,17.80
2014,06,24,13,13,17.70
2014,06,24,13,14,17.60
2014,06,24,13,15,17.60
2014,06,24,13,16,17.50
2014,06,24,13,17,17.40
2014,06,24,13,18,17.40
2014,06,24,13,19,17.30
2014,06,24,13,20,17.30
2014,06,24,13,21,17.30
2014,06,24,13,22,17.30
2014,06,24,13,23,17.30
2014,06,24,13,24,17.30
2014,06,24,13,25,17.30
2014,06,24,13,26,17.30
2014,06,24,13,27,17.40
2014,06,24,13,28,17.40
2014,06,24,13,29,17.50
2014,06,24,13,30,17.60
2014,06,24,13,31,17.60
2014,06,24,13,32,17.70
2014,06,24,13,33,17.70
2014,06,24,13,34,17.70
2014,06,24,13,35,17.70
2014,06,24,13,36,17.70
2014,06,24,13,37,17.60
2014,06,24,13,38,17.60
2014,06,24,13,39,17.60
2014,06,24,13,40,17.60
2014,06,24,13,41,17.70
2014,06,24,13,42,17.70
2014,06,24,13,43,17.80
2014,06,24,13,44,17.80
2014,06,24,13,45,17.80
2014,06,24,13,46,17.90
2014,06,24,13,47,17.90
2014,06,24,13,48,18.00
2014,06,24,13,49,18.00
2014,06,24,13,50,18.10
2014,06,24,13,51,18.20
2014,06,24,13,52,18.20
2014,06,24,13,53,18.30
2014,06,24,13,54,18.30
2014,06,24,13,55,18.40
2014,06,24,13,56,18.50
2014,06,24,13,57,18.50
2014,06,24,13,58,18.60
2014,06,24,13,59,18.60
2014,06,24,14,00,18.70
2014,06,24,14,01,18.70
2014,06,24,14,02,18.70
2014,06,24,14,03,18.70
2014,06,24,14,04,18.70
2014,06,24,14,05,18.80
2014,06,24,14,06,18.80
2014,06,24,14,07,18.80
2014,06,24,14,08,18.90
2014,06,24,14,09,18.90
2014,06,24,14,10,19.00
2014,06,24,14,11,19.10
2014,06,24,14,12,19.20
2014,06,24,14,13,19.20
2014,06,24,14,14,19.30
2014,06,24,14,15,19.30
2014,06,24,14,16,19.40
2014,06,24,14,17,19.40
2014,06,24,14,18,19.40
2014,06,24,14,19,19.40
2014,06,24,14,20,19.40
2014,06,24,14,21,19.40
2014,06,24,14,22,19.40
2014,06,24,14,23,19.30
2014,06,24,14,24,19.20
2014,06,24,14,25,19.20
2014,06,24,14,26,19.20
2014,06,24,14,27,19.10
2014,06,24,14,28,19.10
2014,06,24,14,29,19.00
2014,06,24,14,30,18.90
2014,06,24,14,31,18.70
2014,06,24,14,32,18.60
2014,06,24,14,33,18.50
2014,06,24,14,34,18.40
2014,06,24,14,35,18.30
2014,06,24,14,36,18.30
2014,06,24,14,37,18.20
2014,06,24,14,38,18.20
2014,06,24,14,39,18.30
2014,06,24,14,40,18.30
2014,06,24,14,41,18.30
2014,06,24,14,42,18.20
2014,06,24,14,43,18.20
2014,06,24,14,44,18.20
2014,06,24,14,45,18.20
2014,06,24,14,46,18.20
2014,06,24,14,47,18.20
2014,06,24,14,48,18.10
2014,06,24,14,49,18.10
2014,06,24,14,50,18.10
2014,06,24,14,51,18.10
2014,06,24,14,52,18.10
2014,06,24,14,53,18.10
2014,06,24,14,54,18.00
2014,06,24,14,55,18.00
2014,06,24,14,56,18.00
2014,06,24,14,57,18.00
2014,06,24,14,58,18.00
2014,06,24,14,59,18.00
2014,06,24,15,00,18.00
2014,06,24,15,01,18.10
2014,06,24,15,02,18.10
2014,06,24,15,03,18.10
2014,06,24,15,04,18.00
2014,06,24,15,05,18.00
2014,06,24,15,06,18.10
2014,06,24,15,07,18.10
2014,06,24,15,08,18.00
2014,06,24,15,09,18.00
2014,06,24,15,10,18.10
2014,06,24,15,11,18.10
2014,06,24,15,12,18.20
2014,06,24,15,13,18.30
2014,06,24,15,14,18.40
2014,06,24,15,15,18.50
2014,06,24,15,16,18.50
2014,06,24,15,17,18.60
2014,06,24,15,18,18.70
2014,06,24,15,19,18.70
2014,06,24,15,20,18.70
2014,06,24,15,21,18.80
2014,06,24,15,22,18.90
2014,06,24,15,23,19.00
2014,06,24,15,24,19.10
2014,06,24,15,25,19.30
2014,06,24,15,26,19.40
2014,06,24,15,27,19.50
2014,06,24,15,28,19.60
2014,06,24,15,29,19.60
2014,06,24,15,30,19.60
2014,06,24,15,31,19.70
2014,06,24,15,32,19.70
2014,06,24,15,33,19.70
2014,06,24,15,34,19.80
2014,06,24,15,35,19.90
2014,06,24,15,36,19.90
2014,06,24,15,37,20.00
2014,06,24,15,38,20.10
2014,06,24,15,39,20.20
2014,06,24,15,40,20.20
2014,06,24,15,41,20.20
2014,06,24,15,42,20.20
2014,06,24,15,43,20.20
2014,06,24,15,44,20.20
2014,06,24,15,45,20.20
2014,06,24,15,46,20.20
2014,06,24,15,47,20.20
2014,06,24,15,48,20.20
2014,06,24,15,49,20.20
2014,06,24,15,50,20.30
2014,06,24,15,51,20.30
2014,06,24,15,52,20.20
2014,06,24,15,53,20.10
2014,06,24,15,54,20.10
2014,06,24,15,55,20.00
2014,06,24,15,56,20.00
2014,06,24,15,57,20.00
2014,06,24,15,58,19.90
2014,06,24,15,59,19.80
2014,06,24,16,00,19.80
2014,06,24,16,01,19.70
2014,06,24,16,02,19.70
2014,06,24,16,03,19.50
2014,06,24,16,04,19.40
2014,06,24,16,05,19.30
2014,06,24,16,06,19.30
2014,06,24,16,07,19.30
2014,06,24,16,08,19.30
2014,06,24,16,09,19.20
2014,06,24,16,10,19.20
2014,06,24,16,11,19.20
2014,06,24,16,12,19.20
2014,06,24,16,13,19.20
2014,06,24,16,14,19.20
2014,06,24,16,15,19.10
2014,06,24,16,16,19.00
2014,06,24,16,17,19.00
2014,06,24,16,18,18.90
2014,06,24,16,19,18.90
2014,06,24,16,20,18.90
2014,06,24,16,21,18.90
2014,06,24,16,22,18.90
2014,06,24,16,23,18.80
2014,06,24,16,24,18.80
2014,06,24,16,25,18.80
2014,06,24,16,26,18.70
2014,06,24,16,27,18.60
2014,06,24,16,28,18.60
2014,06,24,16,29,18.50
2014,06,24,16,30,18.50
2014,06,24,16,31,18.50
2014,06,24,16,32,18.60
2014,06,24,16,33,18.60
2014,06,24,16,34,18.70
2014,06,24,16,35,18.80
2014,06,24,16,36,18.80
2014,06,24,16,37,18.90
2014,06,24,16,38,18.90
2014,06,24,16,39,19.00
2014,06,24,16,40,19.10
2014,06,24,16,41,19.20
2014,06,24,16,42,19.30
2014,06,24,16,43,19.30
2014,06,24,16,44,19.40
2014,06,24,16,45,19.40
2014,06,24,16,46,19.40
2014,06,24,16,47,19.50
2014,06,24,16,48,19.50
2014,06,24,16,49,19.50
2014,06,24,16,50,19.50
2014,06,24,16,51,19.60
2014,06,24,16,52,19.60
2014,06,24,16,53,19.60
2014,06,24,16,54,19.70
2014,06,24,16,55,19.70
2014,06,24,16,56,19.80
2014,06,24,16,57,19.80
2014,06,24,16,58,19.80
2014,06,24,16,59,19.80
2014,06,24,17,00,19.80
2014,06,24,17,01,19.70
2014,06,24,17,02,19.70
2014,06,24,17,03,19.70
2014,06,24,17,04,19.70
2014,06,24,17,05,19.70
2014,06,24,17,06,19.70
2014,06,24,17,07,19.70
2014,06,24,17,08,19.70
2014,06,24,17,09,19.70
2014,06,24,17,10,19.70
2014,06,24,17,11,19.70
2014,06,24,17,12,19.80
2014,06,24,17,13,19.80
2014,06,24,17,14,19.80
2014,06,24,17,15,19.80
2014,06,24,17,16,19.90
2014,06,24,17,17,19.90
2014,06,24,17,18,19.90
2014,06,24,17,19,20.00